Flag for Germany Weather past 2 weeks in Waldkraiburg, Bavaria, Germany

Now
23 °F

Fog.


Feels Like: 23 °F
Forecast: 26 / 36 °F
Wind: No wind

Location: Muenchen Flughafen

Current Time: Feb 27, 2015 at 9:08:37 AM

Latest Report: Feb 27, 2015 at 8:00 AM


Visibility: 2 mi

Pressure: 29.94 "Hg

Humidity: 95%

Dew point: 22 °F

Location of WaldkraiburgLocation

Historic Weather in Waldkraiburg — Graph

°F

Waldkraiburg temperature yesterday

Maximum temperature yesterday: 44 °F (at 2:00 PM)
Minimum temperature yesterday: 24 °F (at 7:00 AM)
Average temperature yesterday: 34 °F

Past Weeks' High & Low Weather Summary

 TemperatureHumidityPressure
High47 °F (Feb 20, 4:00 PM)100% (Feb 13, 7:00 PM)30.80 "Hg (Feb 13, 7:00 PM)
Low16 °F (Feb 20, 6:00 AM)53% (Feb 21, 3:00 PM)29.50 "Hg (Feb 21, 2:00 PM)
Average31 °F91%30.11 "Hg
* Reported Feb 12 8:00 AM — Feb 27 8:00 AM, Waldkraiburg, Weather by CustomWeather, © 2015

Note: Actual official high and low records may vary slightly from our data, if they occured in-between our weather recording intervals... More about our weather records

Advertising

Waldkraiburg weather history for previous 24 hours

 ConditionsComfort  
Time TempWeatherWind HumidityBarometerVisibility
8:00 AM
Fri, Feb 27
23 °FFog.No wind95%29.94 "Hg2 mi
7:00 AM23 °FFog.1 mph96%29.93 "Hg2 mi
6:00 AM21 °FFog.1 mph94%29.95 "Hg3 mi
5:00 AM23 °FFog.No wind98%29.95 "Hg1 mi
4:00 AM23 °FFog.1 mph100%29.97 "Hg1 mi
3:00 AM24 °FFog.No wind95%29.98 "Hg7 mi
2:00 AM26 °FFog.1 mph99%30.00 "Hg1 mi
1:00 AM26 °FClear.1 mph98%30.02 "Hg12 mi
12:00 AM27 °FClear.1 mph99%30.04 "Hg12 mi
11:00 PM
Thu, Feb 26
29 °FPassing clouds.1 mph94%30.05 "Hg14 mi
10:00 PM31 °FClear.1 mph88%30.06 "Hg17 mi
9:00 PM32 °FClear.2 mph82%30.08 "Hg19 mi
8:00 PM36 °FClear.2 mph74%30.08 "Hg19 mi
7:00 PM38 °FPassing clouds.2 mph71%30.09 "Hg19 mi
6:00 PM41 °FPassing clouds.2 mph64%30.09 "Hg19 mi
5:00 PM43 °FScattered clouds.3 mph58%30.09 "Hg22 mi
4:00 PM42 °FScattered clouds.1 mph59%30.11 "Hg19 mi
3:00 PM43 °FScattered clouds.3 mph61%30.12 "Hg19 mi
2:00 PM44 °FScattered clouds.3 mph61%30.14 "Hg19 mi
1:00 PM42 °FScattered clouds.3 mph69%30.17 "Hg16 mi
12:00 PM40 °FScattered clouds.3 mph75%30.21 "Hg16 mi
11:00 AM40 °FPassing clouds.1 mph75%30.22 "Hg12 mi
10:00 AM36 °FPassing clouds.1 mph84%30.24 "Hg9 mi
9:00 AM30 °FPassing clouds.1 mph92%30.26 "Hg7 mi
Weather by CustomWeather, © 2015

See weather overviewHow to use our weather pages